This is the latest recevied weather packets stored in our database for station/object N6XE-13. If no packets are shown the sender has not sent any weather packets the latest 10 day(s).
| Time | Temp. | Humidity | Pressure | Rain* | Wind** | Luminosity | Snow |
|---|---|---|---|---|---|---|---|
| 1777843806 | 21.67° C | 57% | 1014.6 hPa | 0 mm | - | - | - |
| 1777842006 | 22.22° C | 57% | 1014.5 hPa | 0 mm | - | - | - |
| 1777840206 | 22.22° C | 56% | 1014.5 hPa | 0 mm | - | - | - |
| 1777838406 | 22.22° C | 55% | 1014.7 hPa | 0 mm | - | - | - |
| 1777836606 | 21.67° C | 56% | 1014.8 hPa | 0 mm | - | - | - |
| 1777833005 | 20.56° C | 59% | 1015 hPa | 0 mm | - | - | - |
| 1777831206 | 20° C | 60% | 1015.1 hPa | 0 mm | - | - | - |
| 1777829405 | 18.33° C | 66% | 1015 hPa | 0 mm | - | - | - |
| 1777827605 | 17.22° C | 71% | 1014.9 hPa | 0 mm | - | - | - |
| 1777825805 | 16.11° C | 77% | 1015 hPa | 0 mm | - | - | - |
| 1777824006 | 16.11° C | 80% | 1014.7 hPa | 0 mm | - | - | - |
| 1777822206 | 15° C | 83% | 1014.4 hPa | 0 mm | - | - | - |
| 1777820406 | 13.89° C | 86% | 1014.3 hPa | 0 mm | - | - | - |
| 1777818606 | 13.33° C | 89% | 1014 hPa | 0 mm | - | - | - |
| 1777816806 | 12.78° C | 90% | 1013.5 hPa | 0 mm | - | - | - |
| 1777815005 | 12.22° C | 90% | 1012.9 hPa | 0 mm | - | - | - |
| 1777813205 | 12.78° C | 90% | 1012.6 hPa | 0 mm | - | - | - |
| 1777811405 | 12.78° C | 91% | 1012.5 hPa | 0 mm | - | - | - |
| 1777809605 | 12.22° C | 93% | 1012.4 hPa | 0 mm | - | - | - |
| 1777807805 | 12.22° C | 93% | 1012.4 hPa | 0 mm | - | - | - |
| 1777806005 | 12.78° C | 92% | 1012.6 hPa | 0 mm | - | - | - |
| 1777804205 | 12.78° C | 91% | 1012.2 hPa | 0 mm | - | - | - |
| 1777802405 | 12.78° C | 90% | 1012.2 hPa | 0 mm | - | - | - |
| 1777800605 | 13.33° C | 89% | 1012.5 hPa | 0 mm | - | - | - |
| 1777798806 | 13.33° C | 89% | 1012.8 hPa | 0 mm | - | - | - |
* Rain latest hour (hover to see other rain measurements)
** Current wind speed in m/s (hover to see current wind gust speed)